N1ACB Weather Reports


Display with metric or nautical units.
time (UTC)temp
F
wind
direction
speed
MPH
gust
MPH
rain 1hr
in
rain 24hr
in
rain mn
in
humidity
%
barometer
mb
20260505201504 80 178 1.0 3.0 0.00 0.00 0.00 35 1011.2
20260505200504 80 208 3.0 7.0 0.00 0.00 0.00 32 1011.4
20260505195504 79 341 0.0 5.0 0.00 0.00 0.00 35 1011.5
20260505195003 79 157 1.0 3.0 0.00 0.00 0.00 33 1011.6
20260505193503 80 168 0.0 3.0 0.00 0.00 0.00 32 1012.0
20260505191504 80 212 1.0 2.0 0.00 0.00 0.00 33 1012.2
20260505191004 80 319 0.0 2.0 0.00 0.00 0.00 33 1012.3
20260505190003 80 236 1.0 3.0 0.00 0.00 0.00 36 1012.4
20260505185504 79 335 1.0 5.0 0.00 0.00 0.00 35 1012.5
20260505185003 78 244 2.0 6.0 0.00 0.00 0.00 35 1012.6
20260505184003 79 160 3.0 7.0 0.00 0.00 0.00 34 1012.6
20260505183504 79 283 1.0 6.0 0.00 0.00 0.00 35 1012.6
20260505183004 79 242 1.0 6.0 0.00 0.00 0.00 35 1012.6
20260505181504 78 227 2.0 6.0 0.00 0.00 0.00 35 1012.7
20260505181003 78 357 0.0 1.0 0.00 0.00 0.00 34 1012.8
20260505180004 78 341 1.0 5.0 0.00 0.00 0.00 37 1013.1
20260505175504 78 338 1.0 5.0 0.00 0.00 0.00 37 1013.3
20260505175004 78 20 0.0 3.0 0.00 0.00 0.00 38 1013.4
20260505174503 78 86 1.0 3.0 0.00 0.00 0.00 34 1013.5
20260505174004 78 90 1.0 3.0 0.00 0.00 0.00 37 1013.6
20260505173503 78 298 0.0 1.0 0.00 0.00 0.00 38 1013.6
20260505173004 78 257 0.0 3.0 0.00 0.00 0.00 35 1013.6
20260505172504 77 153 2.0 7.0 0.00 0.00 0.00 35 1013.8
20260505172003 77 222 3.0 8.0 0.00 0.00 0.00 34 1013.7
20260505171505 77 253 3.0 7.0 0.00 0.00 0.00 35 1013.8
20260505171004 77 61 0.0 2.0 0.00 0.00 0.00 38 1013.7
20260505170003 77 8 2.0 3.0 0.00 0.00 0.00 36 1013.6
20260505165503 76 185 1.0 2.0 0.00 0.00 0.00 37 1013.4
20260505165004 76 273 0.0 2.0 0.00 0.00 0.00 37 1013.5
20260505164504 75 354 1.0 2.0 0.00 0.00 0.00 37 1013.5
20260505164004 75 253 2.0 7.0 0.00 0.00 0.00 38 1013.6
20260505163503 75 196 5.0 12.0 0.00 0.00 0.00 37 1013.6
20260505161504 74 161 0.0 3.0 0.00 0.00 0.00 44 1013.9
20260505161003 74 61 2.0 3.0 0.00 0.00 0.00 46 1013.9
20260505153004 71 221 1.0 6.0 0.00 0.00 0.00 50 1014.2
20260505152004 71 35 0.0 1.0 0.00 0.00 0.00 52 1014.2
20260505151503 70 56 0.0 0.0 0.00 0.00 0.00 56 1014.4
20260505151004 69 49 0.0 0.0 0.00 0.00 0.00 55 1014.5
20260505150504 69 191 0.0 6.0 0.00 0.00 0.00 56 1014.5
20260505140503 63 226 0.0 0.0 0.00 0.00 0.00 70 1014.3
20260505125004 56 95 0.0 0.0 0.00 0.00 0.00 89 1014.0
20260505124503 55 105 0.0 0.0 0.00 0.00 0.00 90 1014.0
20260505124004 55 37 0.0 0.0 0.00 0.00 0.00 91 1014.0
20260505123504 54 37 0.0 0.0 0.00 0.00 0.00 93 1014.1
20260505123004 53 38 0.0 0.0 0.00 0.00 0.00 94 1014.0
20260505122503 53 32 0.0 0.0 0.00 0.00 0.00 95 1013.9
20260505121504 51 35 0.0 0.0 0.00 0.00 0.00 94 1013.9
20260505121003 51 223 0.0 0.0 0.00 0.00 0.00 94 1013.9
20260505120504 51 246 0.0 0.0 0.00 0.00 0.00 95 1013.9
20260505120005 50 214 0.0 0.0 0.00 0.00 0.00 94 1013.9
20260505115504 50 209 0.0 0.0 0.00 0.00 0.00 93 1013.8
20260505115004 50 219 0.0 0.0 0.00 0.00 0.00 93 1013.8
20260505114503 49 219 0.0 0.0 0.00 0.00 0.00 93 1013.7
20260505113503 49 225 0.0 0.0 0.00 0.00 0.00 92 1013.5
20260505112004 49 193 0.0 0.0 0.00 0.00 0.00 92 1013.5
20260505111503 49 192 0.0 0.0 0.00 0.00 0.00 92 1013.5
20260505111004 49 190 0.0 0.0 0.00 0.00 0.00 92 1013.6
20260505110503 49 188 0.0 0.0 0.00 0.00 0.00 91 1013.7
20260505102003 50 199 0.0 0.0 0.00 0.00 0.00 89 1013.2
20260505101004 50 199 0.0 0.0 0.00 0.00 0.00 89 1013.1
20260505095004 50 200 0.0 0.0 0.00 0.00 0.00 88 1012.9
20260505094503 50 205 0.0 0.0 0.00 0.00 0.00 87 1013.0
20260505094004 51 198 0.0 0.0 0.00 0.00 0.00 87 1013.0
20260505093503 51 202 0.0 0.0 0.00 0.00 0.00 87 1012.9
20260505092503 51 217 0.0 0.0 0.00 0.00 0.00 86 1012.8
20260505092003 51 220 0.0 0.0 0.00 0.00 0.00 86 1012.8
20260505091504 51 214 0.0 0.0 0.00 0.00 0.00 86 1012.8
20260505091004 51 217 0.0 0.0 0.00 0.00 0.00 85 1012.8
20260505090503 51 219 0.0 0.0 0.00 0.00 0.00 84 1012.7
20260505085503 51 225 0.0 0.0 0.00 0.00 0.00 84 1012.7
20260505085004 51 215 0.0 0.0 0.00 0.00 0.00 83 1012.7
20260505084503 51 260 0.0 0.0 0.00 0.00 0.00 83 1012.7
20260505084004 51 261 0.0 0.0 0.00 0.00 0.00 82 1012.7
20260505083503 52 260 0.0 0.0 0.00 0.00 0.00 82 1012.7
20260505082504 52 25 0.0 0.0 0.00 0.00 0.00 81 1012.6
20260505082004 52 24 0.0 0.0 0.00 0.00 0.00 81 1012.5
20260505081504 52 28 0.0 0.0 0.00 0.00 0.00 81 1012.5
20260505081004 53 32 0.0 0.0 0.00 0.00 0.00 81 1012.5
20260505080004 53 53 0.0 0.0 0.00 0.00 0.00 80 1012.5
20260505075504 53 47 0.0 0.0 0.00 0.00 0.00 79 1012.6
20260505074504 53 40 0.0 0.0 0.00 0.00 0.00 78 1012.6
20260505074004 54 65 0.0 0.0 0.00 0.00 0.00 78 1012.4
20260505073504 54 58 0.0 0.0 0.00 0.00 0.00 77 1012.3
20260505072504 54 54 0.0 0.0 0.00 0.00 0.00 76 1012.3
20260505072004 54 48 0.0 0.0 0.00 0.00 0.00 77 1012.3
20260505071504 54 56 0.0 0.0 0.00 0.00 0.00 76 1012.4
20260505071004 54 48 0.0 0.0 0.00 0.00 0.00 75 1012.4
20260505070003 54 46 1.0 2.0 0.00 0.00 0.00 76 1012.4
20260505065503 54 42 0.0 0.0 0.00 0.00 0.00 73 1012.3
20260505065003 54 42 0.0 0.0 0.00 0.00 0.00 73 1012.3
20260505064503 54 36 0.0 0.0 0.00 0.00 0.00 74 1012.4
20260505064004 54 26 0.0 0.0 0.00 0.00 0.00 72 1012.3
20260505063504 55 25 0.0 0.0 0.00 0.00 0.00 72 1012.3
20260505063004 55 24 0.0 0.0 0.00 0.00 0.00 75 1012.3
20260505062503 55 23 0.0 0.0 0.00 0.00 0.00 73 1012.3
20260505061503 56 23 0.0 0.0 0.00 0.00 0.00 71 1012.2
20260505060504 56 21 0.0 0.0 0.00 0.00 0.00 70 1012.2
20260505060004 56 21 0.0 0.0 0.00 0.00 0.00 70 1012.2
20260505055504 57 24 0.0 0.0 0.00 0.00 0.00 70 1012.1
20260505055004 57 21 0.0 0.0 0.00 0.00 0.00 71 1012.2
20260505054503 57 20 0.0 0.0 0.00 0.00 0.00 72 1012.2
20260505053504 58 21 0.0 0.0 0.00 0.00 0.00 67 1012.2
20260505053004 58 17 0.0 0.0 0.00 0.00 0.00 65 1012.2
20260505052504 58 22 0.0 0.0 0.00 0.00 0.00 64 1012.2
20260505051504 59 21 0.0 0.0 0.00 0.00 0.00 63 1012.4
20260505051004 60 28 0.0 0.0 0.00 0.00 0.00 62 1012.4
20260505050504 60 30 0.0 0.0 0.00 0.00 0.00 60 1012.4
20260505041504 62 32 0.0 0.0 0.00 0.00 0.00 55 1012.4
20260505041004 62 33 0.0 0.0 0.00 0.00 0.00 53 1012.5
20260505040504 62 33 0.0 0.0 0.00 0.00 0.00 53 1012.5
20260505040005 62 34 0.0 0.0 0.00 0.00 0.00 53 1012.6
20260505035504 63 34 0.0 0.0 0.00 0.00 0.00 53 1012.6
20260505035004 63 35 0.0 0.0 0.00 0.00 0.00 53 1012.6
20260505034503 63 31 0.0 0.0 0.00 0.00 0.00 53 1012.6
20260505033503 63 35 0.0 0.0 0.00 0.00 0.00 52 1012.7
20260505032504 64 35 0.0 0.0 0.00 0.00 0.00 52 1012.6
20260505032003 64 38 0.0 0.0 0.00 0.00 0.00 52 1012.6
20260505031503 64 5 0.0 0.0 0.00 0.00 0.00 52 1012.6
20260505031004 64 6 0.0 0.0 0.00 0.00 0.00 51 1012.6
20260505030504 64 5 0.0 0.0 0.00 0.00 0.00 51 1012.7
20260505030004 64 5 0.0 0.0 0.00 0.00 0.00 51 1012.7
20260505025504 64 4 0.0 0.0 0.00 0.00 0.00 52 1012.7
20260505025004 64 4 0.0 0.0 0.00 0.00 0.00 52 1012.7
20260505024004 65 4 0.0 0.0 0.00 0.00 0.00 50 1012.7
20260505023504 65 4 0.0 0.0 0.00 0.00 0.00 50 1012.6
20260505023004 65 3 0.0 0.0 0.00 0.00 0.00 49 1012.5
20260505022503 65 3 0.0 0.0 0.00 0.00 0.00 49 1012.5
20260505022004 65 3 0.0 0.0 0.00 0.00 0.00 49 1012.5
20260505021503 65 3 0.0 0.0 0.00 0.00 0.00 50 1012.5
20260505020504 65 3 0.0 0.0 0.00 0.00 0.00 49 1012.5
20260505020003 66 3 0.0 0.0 0.00 0.00 0.00 49 1012.6
20260505015504 65 3 0.0 0.0 0.00 0.00 0.00 48 1012.4
20260505014504 65 3 0.0 0.0 0.00 0.00 0.00 49 1012.3
20260505014004 66 3 0.0 0.0 0.00 0.00 0.00 50 1012.3
20260505013503 66 3 0.0 0.0 0.00 0.00 0.00 49 1012.3
20260505013004 66 3 0.0 0.0 0.00 0.00 0.00 49 1012.3
20260505012503 66 3 0.0 0.0 0.00 0.00 0.00 49 1012.2
20260505012004 66 3 0.0 0.0 0.00 0.00 0.00 48 1012.1
20260505011504 66 3 0.0 0.0 0.00 0.00 0.00 48 1012.1
20260505011004 66 4 0.0 0.0 0.00 0.00 0.00 47 1012.1
20260505010504 67 12 0.0 0.0 0.00 0.00 0.00 48 1012.0
20260505010004 67 25 0.0 0.0 0.00 0.00 0.00 48 1012.1
20260505005504 67 25 0.0 0.0 0.00 0.00 0.00 46 1012.1
20260505005004 68 25 0.0 0.0 0.00 0.00 0.00 46 1012.0
20260505004503 68 25 0.0 0.0 0.00 0.00 0.00 46 1011.9
20260505004004 68 25 0.0 0.0 0.00 0.00 0.00 46 1011.9
20260505003504 69 25 0.0 0.0 0.00 0.00 0.00 45 1011.8
20260505003003 69 25 0.0 0.0 0.00 0.00 0.00 45 1011.8
20260505002504 69 25 0.0 0.0 0.00 0.00 0.00 45 1011.8
20260505002003 70 25 0.0 0.0 0.00 0.00 0.00 44 1011.9
20260505001503 70 25 0.0 0.0 0.00 0.00 0.00 43 1011.9
20260505001004 71 25 0.0 0.0 0.00 0.00 0.00 43 1011.8
20260505000503 71 20 0.0 0.0 0.00 0.00 0.00 41 1011.8
20260505000003 72 16 0.0 0.0 0.00 0.00 0.00 40 1012.0
20260504235503 72 14 0.0 0.0 0.00 0.00 0.00 40 1011.9
20260504235004 73 15 0.0 0.0 0.00 0.00 0.00 39 1011.8
20260504234504 73 14 0.0 0.0 0.00 0.00 0.00 38 1011.8
20260504234003 73 24 0.0 0.0 0.00 0.00 0.00 37 1011.8
20260504233504 74 13 0.0 0.0 0.00 0.00 0.00 37 1011.7
20260504233003 74 13 0.0 0.0 0.00 0.00 0.00 36 1011.7
20260504232504 75 13 0.0 0.0 0.00 0.00 0.00 35 1011.6
20260504232003 75 13 0.0 0.0 0.00 0.00 0.00 34 1011.6
20260504231003 76 13 0.0 0.0 0.00 0.00 0.00 32 1011.6
20260504230504 76 13 0.0 0.0 0.00 0.00 0.00 33 1011.6
20260504230003 76 13 0.0 0.0 0.00 0.00 0.00 33 1011.5
20260504225003 76 13 0.0 0.0 0.00 0.00 0.00 30 1011.5
20260504224504 76 3 0.0 3.0 0.00 0.00 0.00 31 1011.5
20260504224004 77 22 0.0 2.0 0.00 0.00 0.00 32 1011.6
20260504223503 77 10 0.0 1.0 0.00 0.00 0.00 32 1011.6
20260504223004 77 289 0.0 0.0 0.00 0.00 0.00 33 1011.6
20260504222503 77 42 0.0 0.0 0.00 0.00 0.00 34 1011.7
20260504222004 77 12 0.0 0.0 0.00 0.00 0.00 32 1011.7
20260504221504 76 304 0.0 0.0 0.00 0.00 0.00 33 1011.7
20260504221004 76 304 0.0 0.0 0.00 0.00 0.00 33 1011.7
20260504220503 76 316 0.0 0.0 0.00 0.00 0.00 32 1011.7
20260504220004 77 342 0.0 0.0 0.00 0.00 0.00 31 1011.6
20260504215504 77 342 0.0 0.0 0.00 0.00 0.00 32 1011.6
20260504215004 77 27 0.0 0.0 0.00 0.00 0.00 30 1011.5
20260504213504 77 336 0.0 2.0 0.00 0.00 0.00 30 1011.6
20260504213003 78 277 0.0 1.0 0.00 0.00 0.00 29 1011.5
20260504212503 78 209 0.0 2.0 0.00 0.00 0.00 28 1011.5
20260504212003 78 293 0.0 1.0 0.00 0.00 0.00 28 1011.5
20260504211004 78 164 1.0 6.0 0.00 0.00 0.00 26 1011.5
20260504205503 79 220 0.0 0.0 0.00 0.00 0.00 26 1011.5
20260504204504 78 182 2.0 6.0 0.00 0.00 0.00 24 1011.7
20260504204004 79 208 2.0 5.0 0.00 0.00 0.00 23 1011.7
20260504203504 79 169 0.0 0.0 0.00 0.00 0.00 23 1011.7
20260504203003 79 226 1.0 6.0 0.00 0.00 0.00 22 1011.8
20260504202503 79 226 1.0 6.0 0.00 0.00 0.00 25 1011.7